K5KVN-2 Weather Reports


time (UTC)temp
C
wind
direction
speed
KPH
gust
KPH
rain 1hr
cm
rain 24hr
cm
rain mn
cm
humidity
%
barometer
mb
20260905232927 36 131 3.2 11.3 0.00 0.00 0.00 37 1012.7
20260905231928 36 122 4.8 12.9 0.00 0.00 0.00 36 1012.7
20260905230926 36 92 3.2 12.9 0.00 0.00 0.00 36 1012.8
20260905225926 37 138 3.2 9.7 0.00 0.00 0.00 36 1012.7
20260905224926 36 92 3.2 8.0 0.00 0.00 0.00 36 1012.5
20260905223928 37 72 1.6 4.8 0.00 0.00 0.00 36 1012.5
20260905222926 36 74 1.6 6.4 0.00 0.00 0.00 35 1012.6
20260905221927 36 355 3.2 6.4 0.00 0.00 0.00 36 1012.5
20260905220927 36 65 1.6 9.7 0.00 0.00 0.00 35 1012.7
20260905215932 37 54 3.2 14.5 0.00 0.00 0.00 35 1012.7
20260905214927 37 116 3.2 9.7 0.00 0.00 0.00 36 1012.8
20260905213926 36 171 1.6 8.0 0.00 0.00 0.00 36 1012.8
20260905213404 36 355 0.0 3.2 0.00 0.00 0.00 37 1012.9
20260905211927 36 9 1.6 3.2 0.00 0.00 0.00 36 1013.1
20260905211417 36 119 1.6 6.4 0.00 0.00 0.00 35 1013.3
20260905205925 37 128 3.2 9.7 0.00 0.00 0.00 35 1013.4
20260905204925 37 79 3.2 11.3 0.00 0.00 0.00 34 1013.6
20260905203925 38 0 4.8 16.1 0.00 0.00 0.00 33 1013.6
20260905202924 38 171 6.4 17.7 0.00 0.00 0.00 34 1013.8
20260905201924 37 188 4.8 14.5 0.00 0.00 0.00 35 1013.9
20260905200927 37 177 8.0 14.5 0.00 0.00 0.00 34 1014.1
20260905200404 37 213 4.8 14.5 0.00 0.00 0.00 35 1014.3
20260905194921 37 82 8.0 17.7 0.00 0.00 0.00 34 1014.4
20260905193923 37 257 4.8 12.9 0.00 0.00 0.00 35 1014.4
20260905192924 37 175 3.2 8.0 0.00 0.00 0.00 35 1014.6
20260905192357 37 355 3.2 14.5 0.00 0.00 0.00 36 1014.8
20260905191406 36 101 4.8 12.9 0.00 0.00 0.00 38 1014.9
20260905185922 36 319 4.8 11.3 0.00 0.00 0.00 40 1015.1
20260905184922 36 168 6.4 16.1 0.00 0.00 0.00 39 1015.0
20260905183921 36 40 4.8 12.9 0.00 0.00 0.00 39 1015.2
20260905182923 36 187 6.4 14.5 0.00 0.00 0.00 40 1015.3
20260905181919 35 126 3.2 14.5 0.00 0.00 0.00 40 1015.5
20260905180915 37 37 4.8 16.1 0.00 0.00 0.00 38 1015.6
20260905175915 36 5 3.2 12.9 0.00 0.00 0.00 39 1015.9
20260905174916 36 49 4.8 9.7 0.00 0.00 0.00 40 1016.0
20260905173915 36 82 6.4 16.1 0.00 0.00 0.00 40 1016.2
20260905172915 36 355 3.2 9.7 0.00 0.00 0.00 40 1016.3
20260905171919 36 314 6.4 14.5 0.00 0.00 0.00 41 1016.5
20260905170913 36 261 3.2 8.0 0.00 0.00 0.00 43 1016.4
20260905170405 35 90 6.4 14.5 0.00 0.00 0.00 43 1016.5
20260905164912 35 171 4.8 9.7 0.00 0.00 0.00 45 1016.7
20260905163909 34 301 1.6 6.4 0.00 0.00 0.00 46 1016.8
20260905162909 33 214 4.8 9.7 0.00 0.00 0.00 48 1016.7
20260905161906 33 152 4.8 11.3 0.00 0.00 0.00 47 1016.8
20260905160906 34 260 6.4 12.9 0.00 0.00 0.00 46 1016.8
20260905155907 33 296 3.2 11.3 0.00 0.00 0.00 48 1016.8
20260905153901 33 43 4.8 8.0 0.00 0.00 0.00 49 1016.8
20260905152903 32 187 3.2 9.7 0.00 0.00 0.00 52 1016.8
20260905151901 32 290 4.8 11.3 0.00 0.00 0.00 54 1016.9
20260905151344 31 172 3.2 9.7 0.00 0.00 0.00 55 1016.8
20260905150346 31 206 4.8 9.7 0.00 0.00 0.00 58 1016.8
20260905144901 31 221 4.8 8.0 0.00 0.00 0.00 57 1016.6
20260905143902 30 166 1.6 6.4 0.00 0.00 0.00 60 1016.6
20260905142903 30 129 1.6 6.4 0.00 0.00 0.00 63 1016.7
20260905141902 29 142 1.6 3.2 0.00 0.00 0.00 64 1016.5
20260905140902 28 135 1.6 4.8 0.00 0.00 0.00 67 1016.6
20260905135901 27 126 1.6 4.8 0.00 0.00 0.00 71 1016.7
20260905134901 26 53 0.0 4.8 0.00 0.00 0.00 73 1016.7
20260905134340 26 64 0.0 3.2 0.00 0.00 0.00 75 1016.6
20260905132900 25 65 0.0 1.6 0.00 0.00 0.00 77 1016.6
20260905131902 25 98 0.0 1.6 0.00 0.00 0.00 79 1016.6
20260905130901 25 98 0.0 1.6 0.00 0.00 0.00 79 1016.7
20260905125903 24 98 0.0 1.6 0.00 0.00 0.00 80 1016.5
20260905125351 23 44 0.0 3.2 0.00 0.00 0.00 81 1016.5
20260905123902 23 84 0.0 0.0 0.00 0.00 0.00 83 1016.4
20260905122902 23 84 0.0 0.0 0.00 0.00 0.00 83 1016.3
20260905121901 23 84 0.0 0.0 0.00 0.00 0.00 84 1016.3
20260905120902 23 90 0.0 0.0 0.00 0.00 0.00 84 1016.2
20260905115904 22 90 0.0 1.6 0.00 0.00 0.00 85 1016.1
20260905114903 22 252 0.0 1.6 0.00 0.00 0.00 84 1016.0
20260905112901 23 252 0.0 0.0 0.00 0.00 0.00 83 1015.9
20260905111903 23 252 0.0 1.6 0.00 0.00 0.00 83 1015.9
20260905110902 23 151 0.0 0.0 0.00 0.00 0.00 82 1015.7
20260905105902 23 151 0.0 0.0 0.00 0.00 0.00 82 1015.7
20260905104902 23 151 0.0 0.0 0.00 0.00 0.00 80 1015.5
20260905103902 24 151 0.0 0.0 0.00 0.00 0.00 80 1015.4
20260905102902 24 151 0.0 1.6 0.00 0.00 0.00 79 1015.5
20260905102341 24 151 0.0 1.6 0.00 0.00 0.00 79 1015.4
20260905100906 24 151 0.0 0.0 0.00 0.00 0.00 79 1015.4
20260905095900 24 151 0.0 1.6 0.00 0.00 0.00 80 1015.4
20260905095332 24 151 0.0 1.6 0.00 0.00 0.00 80 1015.4
20260905093858 24 151 0.0 1.6 0.00 0.00 0.00 79 1015.3
20260905092857 24 151 0.0 0.0 0.00 0.00 0.00 79 1015.4
20260905091856 24 151 0.0 1.6 0.00 0.00 0.00 79 1015.2
20260905090857 24 151 0.0 0.0 0.00 0.00 0.00 78 1015.3
20260905085856 24 151 0.0 0.0 0.00 0.00 0.00 78 1015.3
20260905084857 24 151 0.0 0.0 0.00 0.00 0.00 78 1015.3
20260905083857 24 151 0.0 0.0 0.00 0.00 0.00 77 1015.1
20260905082857 25 151 0.0 0.0 0.00 0.00 0.00 76 1015.1
20260905081858 25 151 0.0 0.0 0.00 0.00 0.00 75 1015.3
20260905080857 25 151 0.0 0.0 0.00 0.00 0.00 75 1015.1
20260905075858 25 151 0.0 0.0 0.00 0.00 0.00 74 1015.2
20260905074856 26 151 0.0 1.6 0.00 0.00 0.00 72 1015.2
20260905073858 26 151 0.0 1.6 0.00 0.00 0.00 68 1015.2
20260905072857 27 151 0.0 0.0 0.00 0.00 0.00 68 1015.2
20260905071859 27 151 0.0 0.0 0.00 0.00 0.00 66 1015.4
20260905070858 27 151 0.0 0.0 0.00 0.00 0.00 65 1015.4
20260905065858 28 151 0.0 1.6 0.00 0.00 0.00 64 1015.5
20260905064855 28 151 1.6 6.4 0.00 0.00 0.00 64 1015.5
20260905063850 28 156 3.2 8.0 0.00 0.00 0.00 64 1015.6
20260905062852 28 158 3.2 4.8 0.00 0.00 0.00 65 1015.5
20260905061852 28 141 3.2 4.8 0.00 0.00 0.00 64 1015.5
20260905060852 28 146 3.2 4.8 0.00 0.00 0.00 64 1015.6
20260905054850 28 136 1.6 3.2 0.00 0.00 0.00 62 1015.5
20260905054331 29 139 4.8 9.7 0.00 0.00 0.00 61 1015.5
20260905052851 29 130 4.8 6.4 0.00 0.00 0.00 61 1015.5
20260905051849 29 128 3.2 6.4 0.00 0.00 0.00 60 1015.5
20260905050846 29 144 3.2 6.4 0.00 0.00 0.00 60 1015.5
20260905050335 30 135 4.8 6.4 0.00 0.00 0.00 59 1015.5
20260905044845 30 128 3.2 9.7 0.00 0.00 0.00 58 1015.4
20260905043844 30 134 3.2 9.7 0.00 0.00 0.00 58 1015.5
20260905043330 30 145 4.8 9.7 0.00 0.00 0.00 57 1015.4
20260905041842 30 134 4.8 9.7 0.00 0.00 0.00 57 1015.4
20260905040840 30 123 4.8 9.7 0.00 0.00 0.00 56 1015.3
20260905035843 30 130 4.8 9.7 0.00 0.00 0.00 56 1015.2
20260905034836 30 126 4.8 9.7 0.00 0.00 0.00 55 1015.4
20260905033836 30 121 6.4 11.3 0.00 0.00 0.00 55 1015.3
20260905032835 31 131 6.4 12.9 0.00 0.00 0.00 54 1015.2
20260905031836 31 163 6.4 11.3 0.00 0.00 0.00 53 1015.2
20260905031310 31 139 6.4 11.3 0.00 0.00 0.00 53 1015.2
20260905025836 31 146 4.8 9.7 0.00 0.00 0.00 53 1015.1
20260905024836 31 132 4.8 9.7 0.00 0.00 0.00 52 1015.1
20260905023836 31 138 4.8 6.4 0.00 0.00 0.00 52 1014.8
20260905022835 31 121 4.8 9.7 0.00 0.00 0.00 51 1014.7
20260905021832 31 123 4.8 9.7 0.00 0.00 0.00 51 1014.6
20260905021317 31 138 4.8 9.7 0.00 0.00 0.00 50 1014.3
20260905015830 31 139 4.8 8.0 0.00 0.00 0.00 50 1014.3
20260905015306 32 148 4.8 14.5 0.00 0.00 0.00 49 1014.1
20260905013830 32 144 3.2 4.8 0.00 0.00 0.00 48 1014.0
20260905013310 32 140 3.2 4.8 0.00 0.00 0.00 47 1013.9
20260905012313 32 132 3.2 4.8 0.00 0.00 0.00 47 1013.7
20260905010829 33 150 3.2 8.0 0.00 0.00 0.00 46 1013.6
20260905005830 33 140 4.8 8.0 0.00 0.00 0.00 45 1013.6
20260905004832 33 154 4.8 8.0 0.00 0.00 0.00 45 1013.6
20260905003829 33 140 4.8 8.0 0.00 0.00 0.00 44 1013.5
20260905003314 34 140 4.8 6.4 0.00 0.00 0.00 42 1013.5
20260905001831 34 138 6.4 9.7 0.00 0.00 0.00 41 1013.4
20260905000830 35 141 6.4 12.9 0.00 0.00 0.00 41 1013.4
20260904235829 35 123 6.4 12.9 0.00 0.00 0.00 41 1013.4
20260904234829 35 125 6.4 12.9 0.00 0.00 0.00 38 1013.5
20260904233830 35 136 6.4 11.3 0.00 0.00 0.00 38 1013.5